Date String (YYYY-MM-DD hh:mm:ss) UTC,Instrument flags,absolute air pressure of the measurement (hPa),sample flow rate (lpm),inlet stack bypass flow (lpm),air temperature of the measurement (°C),ambient temperature measured by the external sensor (°C),aerosol sample conditioner tube jacket temperature (°C),OPC LED temperature (°C),internal box temperature (°C),relative humidity of the measurement (%),span deviation,mass concentration of particles derived from Lorenz-Mie calculation of OPC scattering (μg/m³),mass concentration of particles derived from Lorenz-Mie calculation of OPC scattering (μg/m³),mass concentration of particles derived from Lorenz-Mie calculation of OPC scattering (μg/m³)
DateTimeUTC,F1_M11,P_M11,Q1_M11,Q2_M11,T1_M11,T2_M11,T3_M11,T4_M11,T5_M11,U1_M11,ZSPAN_M11,X2_M11,X0_M11,X1_M11
2023-06-02 11:00:00,SystemResetWarning,0827.1,4.99,000.00,029.2,027.6,000.0,037.6,030.8,25.6,0000.0,0001.71,0003.63,0000.99
2023-06-02 11:01:00,SystemResetWarning,0827.2,4.99,000.00,029.2,027.6,000.0,037.6,030.8,25.6,0000.0,0001.62,0003.42,0000.98
2023-06-02 11:02:00,SystemResetWarning,0827.2,5.00,000.00,029.2,027.6,000.0,037.6,030.8,25.5,0000.0,0001.72,0003.73,0000.99
2023-06-02 11:03:00,SystemResetWarning,0827.2,5.01,000.00,029.2,027.6,000.0,037.6,030.8,25.6,0000.0,0001.78,0003.85,0001.00
2023-06-02 11:04:00,SystemResetWarning,0827.2,5.00,000.00,029.2,027.6,000.0,037.6,030.8,26.0,0000.0,0001.77,0003.77,0001.01
2023-06-02 11:05:00,SystemResetWarning,0827.2,5.00,000.00,029.2,027.6,000.0,037.6,030.8,26.1,0000.0,0001.73,0003.72,0001.01
2023-06-02 11:06:00,SystemResetWarning,0827.2,5.01,000.00,029.2,027.6,000.0,037.6,030.8,25.6,0000.0,0001.65,0003.51,0001.00
2023-06-02 11:07:00,SystemResetWarning,0827.2,5.00,000.00,029.2,027.6,000.0,037.6,030.8,25.2,0000.0,0001.66,0003.10,0001.00
2023-06-02 11:08:00,SystemResetWarning,0827.3,4.99,000.00,029.2,027.6,000.0,037.6,030.8,24.8,0000.0,0001.63,0002.93,0001.00
2023-06-02 11:09:00,SystemResetWarning,0827.2,4.99,000.00,029.2,027.6,000.0,037.6,030.8,24.5,0000.0,0001.61,0002.85,0001.00
2023-06-02 11:10:00,SystemResetWarning,0827.3,5.02,000.00,029.2,027.5,000.0,037.6,030.8,25.3,0000.0,0001.57,0002.75,0001.01
2023-06-02 11:11:00,SystemResetWarning,0827.3,5.01,000.00,029.2,027.5,000.0,037.6,030.8,25.9,0000.0,0001.57,0002.75,0001.01
2023-06-02 11:12:00,SystemResetWarning,0827.3,5.00,000.00,029.2,027.5,000.0,037.6,030.8,26.0,0000.0,0001.61,0002.84,0001.03
2023-06-02 11:13:00,SystemResetWarning,0827.3,5.00,000.00,029.2,027.5,000.0,037.6,030.8,25.9,0000.0,0001.55,0002.63,0001.03
2023-06-02 11:14:00,SystemResetWarning,0827.3,5.00,000.00,029.2,027.5,000.0,037.6,030.8,25.2,0000.0,0001.50,0002.55,0001.03
2023-06-02 11:15:00,SystemResetWarning,0827.3,4.99,000.00,029.2,027.5,000.0,037.6,030.8,25.2,0000.0,0001.53,0002.66,0001.03
2023-06-02 11:16:00,SystemResetWarning,0827.3,4.99,000.00,029.2,027.5,000.0,037.6,030.8,25.5,0000.0,0001.52,0002.58,0001.02
2023-06-02 11:17:00,SystemResetWarning,0827.3,5.00,000.00,029.1,027.5,000.0,037.5,030.8,25.4,0000.0,0001.52,0002.59,0001.02
2023-06-02 11:18:00,SystemResetWarning,0827.4,5.01,000.00,029.1,027.5,000.0,037.5,030.8,25.4,0000.0,0001.49,0002.55,0001.02
2023-06-02 11:19:00,SystemResetWarning,0827.3,5.00,000.00,029.1,027.5,000.0,037.5,030.8,25.4,0000.0,0001.52,0002.70,0001.02
2023-06-02 11:20:00,SystemResetWarning,0827.3,5.00,000.00,029.1,027.4,000.0,037.5,030.7,25.4,0000.0,0001.54,0002.81,0001.02
2023-06-02 11:21:00,SystemResetWarning,0827.3,5.00,000.00,029.1,027.4,000.0,037.5,030.7,25.3,0000.0,0001.55,0002.87,0001.02
2023-06-02 11:22:00,SystemResetWarning,0827.3,5.00,000.00,029.1,027.4,000.0,037.5,030.7,25.1,0000.0,0001.52,0002.79,0001.01
2023-06-02 11:23:00,SystemResetWarning,0827.3,5.00,000.00,029.1,027.5,000.0,037.5,030.7,24.8,0000.0,0001.51,0002.81,0001.00
2023-06-02 11:24:00,SystemResetWarning,0827.2,4.99,000.00,029.1,027.5,000.0,037.5,030.7,24.5,0000.0,0001.54,0002.92,0000.99
2023-06-02 11:25:00,SystemResetWarning,0827.3,5.00,000.00,029.1,027.5,000.0,037.5,030.7,24.6,0000.0,0001.53,0002.85,0000.99
2023-06-02 11:26:00,SystemResetWarning,0827.2,5.00,000.00,029.1,027.5,000.0,037.5,030.7,24.9,0000.0,0001.48,0002.72,0000.98
2023-06-02 11:27:00,SystemResetWarning,0827.3,5.01,000.00,029.1,027.4,000.0,037.5,030.7,25.0,0000.0,0001.51,0002.82,0000.98
2023-06-02 11:28:00,SystemResetWarning,0827.2,5.01,000.00,029.1,027.4,000.0,037.5,030.7,24.9,0000.0,0001.53,0002.85,0000.99
2023-06-02 11:29:00,SystemResetWarning,0827.2,5.01,000.00,029.1,027.4,000.0,037.5,030.7,24.9,0000.0,0001.52,0002.79,0001.00
2023-06-02 11:30:00,SystemResetWarning,0827.2,4.99,000.00,029.1,027.4,000.0,037.5,030.7,24.8,0000.0,0001.52,0002.84,0001.00
2023-06-02 11:31:00,SystemResetWarning,0827.2,4.99,000.00,029.1,027.4,000.0,037.5,030.7,25.0,0000.0,0001.54,0003.15,0001.00
2023-06-02 11:32:00,SystemResetWarning,0827.2,5.00,000.00,029.1,027.4,000.0,037.5,030.7,25.2,0000.0,0001.56,0003.20,0001.01
2023-06-02 11:33:00,SystemResetWarning,0827.2,5.01,000.00,029.1,027.4,000.0,037.5,030.7,24.9,0000.0,0001.56,0003.18,0001.01
2023-06-02 11:34:00,SystemResetWarning,0827.2,5.01,000.00,029.1,027.4,000.0,037.5,030.7,24.8,0000.0,0001.52,0003.05,0001.01
2023-06-02 11:35:00,SystemResetWarning,0827.2,4.99,000.00,029.1,027.4,000.0,037.5,030.7,25.1,0000.0,0001.51,0002.99,0001.00
2023-06-02 11:36:00,SystemResetWarning,0827.2,4.99,000.00,029.1,027.4,000.0,037.5,030.7,25.1,0000.0,0001.55,0003.08,0001.00
2023-06-02 11:37:00,SystemResetWarning,0827.2,4.99,000.00,029.1,027.4,000.0,037.5,030.7,24.9,0000.0,0001.67,0003.59,0001.00
2023-06-02 11:38:00,SystemResetWarning,0827.2,5.01,000.00,029.1,027.4,000.0,037.5,030.7,24.8,0000.0,0001.66,0004.02,0001.00
2023-06-02 11:39:00,SystemResetWarning,0827.3,5.01,000.00,029.1,027.4,000.0,037.5,030.7,24.7,0000.0,0001.66,0004.02,0000.99
2023-06-02 11:40:00,SystemResetWarning,0827.3,5.01,000.00,029.1,027.4,000.0,037.5,030.7,24.7,0000.0,0001.71,0004.17,0000.99
2023-06-02 11:41:00,SystemResetWarning,0827.3,5.00,000.00,029.1,027.4,000.0,037.5,030.7,24.6,0000.0,0001.70,0004.17,0000.97
2023-06-02 11:42:00,SystemResetWarning,0827.3,4.99,000.00,029.0,027.4,000.0,037.5,030.7,24.8,0000.0,0001.68,0003.80,0000.97
2023-06-02 11:43:00,SystemResetWarning,0827.2,4.99,000.00,029.0,027.4,000.0,037.5,030.7,24.9,0000.0,0001.63,0003.73,0000.95
2023-06-02 11:44:00,SystemResetWarning,0827.2,5.00,000.00,029.0,027.4,000.0,037.5,030.7,25.2,0000.0,0001.61,0004.11,0000.94
2023-06-02 11:45:00,SystemResetWarning,0827.2,5.01,000.00,029.0,027.4,000.0,037.5,030.6,25.5,0000.0,0001.64,0004.24,0000.95
2023-06-02 11:46:00,SystemResetWarning,0827.2,5.00,000.00,029.0,027.4,000.0,037.5,030.6,25.4,0000.0,0001.67,0004.39,0000.94
2023-06-02 11:47:00,SystemResetWarning,0827.2,5.01,000.00,029.0,027.4,000.0,037.4,030.7,25.4,0000.0,0001.70,0004.50,0000.94
2023-06-02 11:48:00,SystemResetWarning,0827.2,5.00,000.00,029.0,027.4,000.0,037.4,030.6,25.2,0000.0,0001.62,0004.92,0000.95
2023-06-02 11:49:00,SystemResetWarning,0827.1,5.00,000.00,029.0,027.4,000.0,037.4,030.6,25.0,0000.0,0001.58,0004.23,0000.95
2023-06-02 11:50:00,SystemResetWarning,0827.2,4.99,000.00,029.0,027.4,000.0,037.4,030.7,25.1,0000.0,0001.57,0004.14,0000.95
2023-06-02 11:51:00,SystemResetWarning,0827.2,4.99,000.00,029.0,027.4,000.0,037.4,030.7,25.1,0000.0,0001.55,0004.11,0000.95
2023-06-02 11:52:00,SystemResetWarning,0827.2,5.00,000.00,029.0,027.4,000.0,037.4,030.6,25.1,0000.0,0001.53,0004.03,0000.95
2023-06-02 11:53:00,SystemResetWarning,0827.2,5.00,000.00,029.0,027.3,000.0,037.4,030.6,25.0,0000.0,0001.55,0004.00,0000.95
2023-06-02 11:54:00,SystemResetWarning,0827.2,5.00,000.00,029.0,027.3,000.0,037.4,030.6,25.0,0000.0,0001.53,0003.88,0000.93
2023-06-02 11:55:00,SystemResetWarning,0827.2,5.00,000.00,029.0,027.3,000.0,037.4,030.6,25.1,0000.0,0001.53,0003.46,0000.93
2023-06-02 11:56:00,SystemResetWarning,0827.2,4.99,000.00,029.0,027.3,000.0,037.4,030.6,25.0,0000.0,0001.47,0003.26,0000.92
2023-06-02 11:57:00,SystemResetWarning,0827.3,5.00,000.00,029.0,027.3,000.0,037.4,030.6,24.9,0000.0,0001.40,0003.08,0000.91
2023-06-02 11:58:00,SystemResetWarning,0827.3,5.00,000.00,029.0,027.3,000.0,037.4,030.6,25.2,0000.0,0001.35,0002.97,0000.91
2023-06-02 11:59:00,SystemResetWarning,0827.4,5.00,000.00,029.0,027.3,000.0,037.4,030.6,25.3,0000.0,0001.31,0002.17,0000.89
